Weather History for Show Low, AZ

Change the Weather History Date:

Thursday, November 8, 2012

  Actual Average Record
Temperature  
Mean Temperature 54 °F -  
Max Temperature 64 °F 54 °F 74 °F (1973)
Min Temperature 44 °F 34 °F 15 °F (1975)
Degree Days  
Heating Degree Days 11    
Growing Degree Days 4 (Base 50)    
Moisture  
Dew Point 24 °F    
Average Humidity 35    
Maximum Humidity 76    
Minimum Humidity 15    
Precipitation  
Precipitation 0.13 in - - ()
Sea Level Pressure  
Sea Level Pressure 30.10 in    
Wind  
Wind Speed 11 mph (SSW)    
Max Wind Speed 23 mph    
Max Gust Speed 32 mph    
Visibility 10 miles    
Events Rain    
Averages and records for this station are not official NWS values.
T = Trace of Precipitation, MM = Missing Value Source: NWS Daily Summary

Daily Weather History Graph

Daily Weather History Graph

Search for Another Location

Airport:

Trip Planner

Search our weather history database for the weather conditions in past years. The results will help you decide how hot, cold, wet, or windy it might be!

Date:

Astronomy

Nov. 08, 2012 Rise Set
Actual Time 6:46 AM MST 5:20 PM MST
Civil Twilight 6:20 AM MST 5:46 PM MST
Nautical Twilight 5:50 AM MST 6:16 PM MST
Astronomical Twilight 5:21 AM MST 6:46 PM MST
Moon 1:00 AM MST (11/8) 1:49 PM MST (11/8)
Length of Visible Light 11h 26m
Length of Day
10h 33m
Waning Crescent, 32% of the Moon is Illuminated
Nov 8
Waning Crescent
Nov 13
New
Nov 20
First Quarter
Nov 28
Full
Dec 6
Last Quarter

Hourly Weather History & Observations

Time (MST) Temp. Windchill Dew Point Humidity Pressure Visibility Wind Dir Wind Speed Gust Speed Precip Events Conditions
12:15 AM 48.2 °F - 21.2 °F 34% 30.17 in 10.0 mi South 10.4 mph - N/A   Clear
12:35 AM 46.4 °F 41.5 °F 21.2 °F 37% 30.17 in 10.0 mi South 10.4 mph - N/A   Clear
12:55 AM 48.2 °F - 21.2 °F 34% 30.16 in 10.0 mi South 9.2 mph - N/A   Clear
1:15 AM 48.2 °F - 21.2 °F 34% 30.16 in 10.0 mi South 8.1 mph - N/A   Clear
1:35 AM 50.0 °F - 21.2 °F 32% 30.15 in 10.0 mi South 8.1 mph - N/A   Clear
1:55 AM 50.0 °F - 21.2 °F 32% 30.15 in 10.0 mi South 5.8 mph - N/A   Clear
2:15 AM 50.0 °F - 21.2 °F 32% 30.14 in 10.0 mi South 6.9 mph - N/A   Clear
2:35 AM 50.0 °F - 23.0 °F 35% 30.13 in 10.0 mi South 4.6 mph - N/A   Clear
2:55 AM 50.0 °F - 23.0 °F 35% 30.13 in 10.0 mi South 3.5 mph - N/A   Clear
3:15 AM 50.0 °F - 23.0 °F 35% 30.12 in 10.0 mi Calm Calm - N/A   Clear
3:35 AM 50.0 °F - 23.0 °F 35% 30.12 in 10.0 mi Calm Calm - N/A   Clear
3:55 AM 48.2 °F - 21.2 °F 34% 30.12 in 10.0 mi North 3.5 mph - N/A   Clear
4:15 AM 48.2 °F - 23.0 °F 37% 30.12 in 10.0 mi Calm Calm - N/A   Clear
4:35 AM 50.0 °F - 23.0 °F 35% 30.12 in 10.0 mi SW 5.8 mph - N/A   Partly Cloudy
4:55 AM 50.0 °F - 23.0 °F 35% 30.12 in 10.0 mi SSW 6.9 mph - N/A   Clear
5:15 AM 51.8 °F - 23.0 °F 33% 30.12 in 10.0 mi SSW 9.2 mph - N/A   Clear
5:35 AM 50.0 °F - 23.0 °F 35% 30.12 in 10.0 mi SW 8.1 mph - N/A   Clear
5:55 AM 50.0 °F - 23.0 °F 35% 30.12 in 10.0 mi SSW 8.1 mph - N/A   Clear
6:15 AM 50.0 °F - 23.0 °F 35% 30.12 in 10.0 mi South 10.4 mph - N/A   Partly Cloudy
6:35 AM 50.0 °F - 23.0 °F 35% 30.12 in 10.0 mi South 13.8 mph - N/A   Clear
6:55 AM 50.0 °F - 23.0 °F 35% 30.12 in 10.0 mi South 13.8 mph 18.4 mph N/A   Mostly Cloudy
7:15 AM 50.0 °F - 23.0 °F 35% 30.12 in 10.0 mi South 15.0 mph - N/A   Partly Cloudy
7:35 AM 51.8 °F - 23.0 °F 33% 30.12 in 10.0 mi South 15.0 mph 23.0 mph N/A   Clear
7:55 AM 53.6 °F - 23.0 °F 30% 30.12 in 10.0 mi South 16.1 mph - N/A   Clear
8:15 AM 55.4 °F - 21.2 °F 26% 30.12 in 10.0 mi South 19.6 mph 24.2 mph N/A   Clear
8:35 AM 55.4 °F - 21.2 °F 26% 30.13 in 10.0 mi SSW 13.8 mph 23.0 mph N/A   Clear
8:55 AM 55.4 °F - 23.0 °F 29% 30.15 in 10.0 mi SW 10.4 mph 19.6 mph N/A   Clear
9:15 AM 55.4 °F - 23.0 °F 29% 30.15 in 10.0 mi SW 10.4 mph - N/A   Clear
9:35 AM 59.0 °F - 23.0 °F 25% 30.15 in 10.0 mi SW 17.3 mph 20.7 mph 0.13 in   Clear
9:55 AM - - - N/A% 30.14 in - South 15.0 mph 23.0 mph 0.13 in   Unknown
10:15 AM 59.0 °F - 21.2 °F 23% 30.15 in 10.0 mi SW 17.3 mph - N/A   Unknown
10:55 AM 59.0 °F - 19.4 °F 22% 30.14 in 10.0 mi SSW 16.1 mph 25.3 mph N/A   Unknown
11:15 AM 60.8 °F - 17.6 °F 19% 30.13 in 10.0 mi SSW 20.7 mph 27.6 mph N/A   Clear
11:35 AM 62.6 °F - 19.4 °F 19% 30.13 in 10.0 mi SSW 18.4 mph 26.5 mph N/A   Clear
11:55 AM 60.8 °F - 19.4 °F 20% 30.12 in 10.0 mi SW 15.0 mph 27.6 mph N/A   Clear
12:15 PM 62.6 °F - 19.4 °F 19% 30.10 in 10.0 mi SW 17.3 mph 24.2 mph N/A   Clear
12:35 PM 64.4 °F - 19.4 °F 18% 30.09 in 10.0 mi SSW 23.0 mph 29.9 mph N/A   Clear
12:55 PM 64.4 °F - 17.6 °F 16% 30.08 in 10.0 mi SSW 20.7 mph 29.9 mph N/A   Clear
1:15 PM 64.4 °F - 17.6 °F 16% 30.08 in 10.0 mi SSW 19.6 mph 32.2 mph N/A   Clear
1:35 PM 64.4 °F - 15.8 °F 15% 30.08 in 10.0 mi SSW 19.6 mph 28.8 mph N/A   Clear
1:55 PM 64.4 °F - 15.8 °F 15% 30.07 in 10.0 mi SSW 18.4 mph 27.6 mph N/A   Clear
2:15 PM 62.6 °F - 15.8 °F 16% 30.06 in 10.0 mi SSW 23.0 mph 28.8 mph N/A   Clear
2:35 PM 62.6 °F - 15.8 °F 16% 30.06 in 10.0 mi SW 21.9 mph 28.8 mph N/A   Clear
2:55 PM 64.4 °F - 15.8 °F 15% 30.06 in 10.0 mi SW 20.7 mph 29.9 mph N/A   Clear
3:15 PM 62.6 °F - 15.8 °F 16% 30.05 in 10.0 mi SW 19.6 mph 24.2 mph N/A   Clear
3:35 PM 62.6 °F - 17.6 °F 18% 30.05 in 10.0 mi SW 21.9 mph 28.8 mph N/A   Clear
3:55 PM 62.6 °F - 17.6 °F 18% 30.05 in 10.0 mi SW 15.0 mph 24.2 mph N/A   Clear
4:15 PM 62.6 °F - 17.6 °F 18% 30.04 in 10.0 mi SW 18.4 mph 24.2 mph N/A   Clear
4:35 PM 60.8 °F - 17.6 °F 19% 30.04 in 10.0 mi SW 15.0 mph 25.3 mph N/A   Clear
4:55 PM 59.0 °F - 17.6 °F 20% 30.04 in 10.0 mi SW 13.8 mph 21.9 mph N/A   Clear
5:15 PM 57.2 °F - 17.6 °F 21% 30.05 in 10.0 mi SW 15.0 mph - N/A   Clear
5:35 PM 57.2 °F - 17.6 °F 21% 30.06 in 10.0 mi SW 15.0 mph 19.6 mph N/A   Partly Cloudy
5:55 PM 57.2 °F - 17.6 °F 21% 30.07 in 10.0 mi SW 11.5 mph - N/A   Mostly Cloudy
6:15 PM 55.4 °F - 19.4 °F 25% 30.08 in 10.0 mi SW 12.7 mph 23.0 mph N/A   Mostly Cloudy
6:35 PM 55.4 °F - 21.2 °F 26% 30.07 in 10.0 mi SW 16.1 mph 20.7 mph N/A   Scattered Clouds
6:55 PM 55.4 °F - 26.6 °F 33% 30.08 in 10.0 mi SW 16.1 mph 21.9 mph N/A   Mostly Cloudy
7:15 PM 53.6 °F - 28.4 °F 38% 30.07 in 10.0 mi South 10.4 mph - N/A   Mostly Cloudy
7:35 PM 53.6 °F - 28.4 °F 38% 30.07 in 10.0 mi SSW 9.2 mph - N/A   Mostly Cloudy
7:55 PM 50.0 °F - 32.0 °F 50% 30.07 in 10.0 mi SW 15.0 mph - N/A   Mostly Cloudy
8:15 PM 48.2 °F - 37.4 °F 66% 30.07 in 7.0 mi SW 12.7 mph - N/A Rain Light Rain
8:35 PM 46.4 °F 42.9 °F 39.2 °F 76% 30.07 in 10.0 mi SSW 6.9 mph - N/A   Mostly Cloudy
8:55 PM 46.4 °F 40.7 °F 37.4 °F 71% 30.08 in 10.0 mi SW 12.7 mph 18.4 mph N/A   Scattered Clouds
9:15 PM 48.2 °F - 37.4 °F 66% 30.08 in 10.0 mi SSW 19.6 mph 25.3 mph N/A   Scattered Clouds
9:35 PM 48.2 °F - 37.4 °F 66% 30.07 in 9.0 mi South 16.1 mph 24.2 mph N/A Rain Light Rain
9:55 PM 46.4 °F 41.1 °F 37.4 °F 71% 30.09 in 10.0 mi SSW 11.5 mph - N/A   Mostly Cloudy
10:15 PM 46.4 °F 40.4 °F 37.4 °F 71% 30.09 in 10.0 mi SSW 13.8 mph 20.7 mph N/A   Mostly Cloudy
10:35 PM 46.4 °F 41.1 °F 37.4 °F 71% 30.08 in 10.0 mi South 11.5 mph - N/A   Mostly Cloudy
10:55 PM 46.4 °F 40.7 °F 35.6 °F 66% 30.08 in 10.0 mi South 12.7 mph - N/A   Scattered Clouds
11:15 PM 44.6 °F 39.2 °F 35.6 °F 71% 30.07 in 10.0 mi South 10.4 mph - N/A   Scattered Clouds
11:35 PM 44.6 °F 38.1 °F 35.6 °F 71% 30.06 in 10.0 mi South 13.8 mph 18.4 mph N/A   Partly Cloudy
11:55 PM 44.6 °F 38.4 °F 35.6 °F 71% 30.06 in 10.0 mi South 12.7 mph - N/A   Scattered Clouds